Gan International Airport


Codes: VRMG/GAN
Name: Gan International Airport
City: Gan
Country: Maldives
Elevation: 6 ft.
Website:
Wikipedia:

Photos at Gan International Airport


   Photos courtesy of SpottingLog. You can add your own sightings and photos by signing up for a free trial today.



No photos found.

Weather at Gan International Airport


Time (UTC)DescriptionTempratureWindCloud coverageVisibilityPressureHumidity
26-Jun-2024 00:00Overcast Clouds29°C11 mph, S100%10000m1007hPa77%
26-Jun-2024 03:00Light Rain29°C9 mph, S100%10000m1008hPa76%
26-Jun-2024 06:00Overcast Clouds29°C7 mph, S100%10000m1009hPa74%
26-Jun-2024 09:00Overcast Clouds29°C7 mph, S100%10000m1007hPa76%
26-Jun-2024 12:00Light Rain29°C7 mph, SE100%10000m1007hPa76%
26-Jun-2024 15:00Light Rain29°C2 mph, SE99%10000m1009hPa74%
26-Jun-2024 18:00Overcast Clouds29°C4 mph, SE99%10000m1010hPa74%
26-Jun-2024 21:00Overcast Clouds28°C4 mph, S100%10000m1007hPa75%
27-Jun-2024 00:00Overcast Clouds28°C4 mph, SE100%10000m1008hPa75%
27-Jun-2024 03:00Overcast Clouds28°C2 mph, NE100%10000m1010hPa74%
27-Jun-2024 06:00Overcast Clouds28°C2 mph, SE100%10000m1010hPa73%
27-Jun-2024 09:00Overcast Clouds29°C0 mph, NW100%10000m1008hPa72%
27-Jun-2024 12:00Overcast Clouds29°C4 mph, SW100%10000m1009hPa72%
27-Jun-2024 15:00Overcast Clouds29°C2 mph, SW100%10000m1011hPa72%
27-Jun-2024 18:00Overcast Clouds29°C4 mph, SW100%10000m1011hPa73%
27-Jun-2024 21:00Overcast Clouds28°C2 mph, W100%10000m1009hPa74%
28-Jun-2024 00:00Overcast Clouds28°C2 mph, SW100%10000m1009hPa74%
28-Jun-2024 03:00Overcast Clouds28°C2 mph, S100%10000m1011hPa73%
28-Jun-2024 06:00Overcast Clouds28°C2 mph, S100%10000m1011hPa73%
28-Jun-2024 09:00Overcast Clouds29°C2 mph, S100%10000m1009hPa71%
28-Jun-2024 12:00Overcast Clouds29°C2 mph, S100%10000m1009hPa70%
28-Jun-2024 15:00Overcast Clouds29°C2 mph, SW100%10000m1011hPa70%
28-Jun-2024 18:00Overcast Clouds29°C4 mph, SE100%10000m1011hPa71%
28-Jun-2024 21:00Light Rain28°C4 mph, SE100%10000m1009hPa73%
29-Jun-2024 00:00Overcast Clouds28°C2 mph, S100%10000m1009hPa72%
29-Jun-2024 03:00Overcast Clouds28°C4 mph, SE100%10000m1011hPa73%
29-Jun-2024 06:00Overcast Clouds29°C9 mph, SE100%10000m1011hPa74%
29-Jun-2024 09:00Overcast Clouds29°C7 mph, SE100%10000m1009hPa72%
29-Jun-2024 12:00Overcast Clouds29°C7 mph, SE90%10000m1009hPa70%
29-Jun-2024 15:00Scattered Clouds29°C9 mph, SE28%10000m1010hPa72%
29-Jun-2024 18:00Scattered Clouds29°C11 mph, SE31%10000m1011hPa73%
29-Jun-2024 21:00Scattered Clouds28°C9 mph, SE26%10000m1009hPa74%
30-Jun-2024 00:00Few Clouds28°C7 mph, SE24%10000m1010hPa74%
30-Jun-2024 03:00Broken Clouds29°C7 mph, E58%10000m1012hPa72%
30-Jun-2024 06:00Broken Clouds29°C7 mph, SE67%10000m1011hPa75%
30-Jun-2024 09:00Few Clouds29°C7 mph, SE18%10000m1009hPa76%
30-Jun-2024 12:00Light Rain29°C9 mph, SE38%10000m1009hPa78%
30-Jun-2024 15:00Light Rain29°C11 mph, SE4%10000m1011hPa76%
30-Jun-2024 18:00Few Clouds29°C11 mph, SE23%10000m1011hPa75%
30-Jun-2024 21:00Clear Sky29°C11 mph, SE10%10000m1010hPa75%